Weather in Sverdlovo

Russia / Orenburg Oblast     52°09′43″N   52°17′32″E
temp.,
°C
wind,
m/s
gust,
m/s
humid.,
%
clouds,
%
prec.,
mm/h
press.,
hPa
HPBL,
m
4 march, thu
thu423:00−6nw4109299 0.6 1007312
02:00−9wnw5119631 0.0 1007229
05:00−12wnw479747 0.0 1009109
08:00−13wsw459768 0.0 101078
11:00−10sw5119368 0.0 1010286
14:00−4sw8139375 0.0 1008615
17:00−3sw10159288 0.2 1007886
20:00−1sw111796100 0.8 1005951
5 march, fri
fri523:000wsw111796100 1.9 1005944
02:00−1wsw91591100 0.1 1004932
05:00−3sw91688100 0.2 1005555
08:00−2sw91591100 0.1 1004547
11:00−2sw91596100 1.6 1004680
14:00+1sw1016100100 1.5 1004847
17:000w61193100 2.4 1005701
20:00−1w4897100 0.3 1008298
6 march, sat
sat623:00−4n379799 1.2 1011227
02:00−8nnw2395100 0.2 101222
05:00−11nnw229497 0.2 101421
08:00−12wnw119292 0.0 101521
11:00−9wnw118587 0.0 101641
14:00−6wnw117876 0.0 1015191
17:00−6nne118788 0.0 1013168
20:00−7n2292100 0.0 101222
7 march, sun
sun723:00−8n3796100 0.3 1012227
02:00−11n5993100 0.2 1011252
05:00−14n51091100 0.2 1012250
08:00−18nnw599499 0.0 1013177
11:00−17nnw479350 0.0 1015218
14:00−13nw35890 0.0 1016242
17:00−12wsw35900 0.0 1016190
20:00−15ssw59910 0.0 1016141
8 march, mon
mon823:00−15ssw511951 0.0 1015202
02:00−12ssw7139599 0.1 1012330
05:00−8ssw9169299 0.1 1009649
08:00−6sw101793100 0.4 1007797
11:00−4sw101594100 1.1 1008852
14:00−3sw81193100 0.6 1009792
17:00−3ssw91495100 1.0 1008872
20:00−2sw101794100 1.1 10051065